User: anonymous   Login
Location: Grange Verzio
(44.5000°N, 6.9833°E)
Time: 22:20:20
(UTC+00:00)
Language:

NOAA 16 DEB - Orbit

View from above orbital plane
View from above orbital plane
View from above satellite
View from above satellite

Ground track
Ground track

The orbit data is extracted from the following two-line orbital elements,

1 41252U 00055FC  24056.58094807  .00005873  00000-0  34037-2 0  9994
2 41252  98.9400 111.5869 0060618 212.6750 147.0663 14.08256378420626
Epoch (UTC): 25 February 2024 13:56:33
Eccentricity: 0.0060618
inclination: 98.9400°
perigee height: 821 km
apogee height: 909 km
right ascension of ascending node: 111.5869°
argument of perigee: 212.6750°
revolutions per day: 14.08256378
mean anomaly at epoch: 147.0663°
orbit number at epoch: 42062

The dashed part of the orbit path shows where the satellite is in the earth's shadow,  

DLR